Find Starlink 2533

NORAD ID: 48294 Int'l Des: 2021-036 Owner: SPXS Country: US Constellation: starlink operational
LEOCIRCULAR

現在のビュー

3D地球を読み込み中...

About Starlink 2533

Starlink 2533 (NORAD 48294) is a starlink constellation satellite (v1.0) launched Apr 29, 2021 by SPXS of US. It operates in LEO, CIRCULAR orbit with a mass of 260.00 kg.

次回通過

Passes for default location (London). Set your location on the main map for personalized predictions.

高度履歴

Loading altitude history...

軌道要素

1 48294U 21036U 26264.23966421 .00001453 00000-0 58558-4 0 9990
2 48294 53.1591 245.3018 0001281 98.0438 262.0709 15.31714287298374
Epoch: Sep 21, 2026 • Age: 11 hours

現在のステータス

高度 474.4 km
遠地点 / 近地点 N/A
速度 7.63 km/s
衛星直下点 44.33°N, 117.28°E
打ち上げ日 Apr 29, 2021
運用期間 5.3 years
タイプ internet

技術仕様

分類 Payload
質量 260.00 kg
乾燥質量 248.00 kg
長さ 0.20 m
スパン 9.00 m
形状 ? Box + pan
製造者 SPXS
バスタイプ Starlink
フェーズステータス In Orbit
所有者/国 SPXS/US

Most Searched